TimeCST,TemperatureF,Dew PointF,Humidity,Sea Level PressureIn,VisibilityMPH,Wind Direction,Wind SpeedMPH,Gust SpeedMPH,PrecipitationIn,Events,Conditions,WindDirDegrees,DateUTC
12:54 AM,21.0,17.1,85,30.33,10.0,Calm,Calm,-,N/A,,Clear,0,2013-01-03 06:54:00
1:34 AM,19.4,17.6,93,30.29,1.5,Calm,Calm,-,N/A,,Partly Cloudy,0,2013-01-03 07:34:00
1:36 AM,19.4,17.6,93,30.29,0.8,Calm,Calm,-,N/A,,Mist,0,2013-01-03 07:36:00
1:51 AM,19.4,17.6,93,30.30,0.5,Calm,Calm,-,N/A,Fog,Light Freezing Fog,0,2013-01-03 07:51:00
1:54 AM,19.0,18.0,96,30.35,0.8,Calm,Calm,-,N/A,,Mist,0,2013-01-03 07:54:00
1:57 AM,17.6,17.6,100,30.31,1.2,Calm,Calm,-,N/A,,Partly Cloudy,0,2013-01-03 07:57:00
2:01 AM,17.6,15.8,93,30.31,0.8,Calm,Calm,-,N/A,,Mist,0,2013-01-03 08:01:00
2:09 AM,17.6,17.6,100,30.32,0.2,Calm,Calm,-,N/A,Fog,Light Freezing Fog,0,2013-01-03 08:09:00
2:16 AM,19.4,17.6,93,30.32,0.5,Calm,Calm,-,N/A,Fog,Light Freezing Fog,0,2013-01-03 08:16:00
2:24 AM,19.4,17.6,93,30.32,1.0,Calm,Calm,-,N/A,,Clear,0,2013-01-03 08:24:00
2:30 AM,21.2,19.4,93,30.32,3.0,Calm,Calm,-,N/A,,Clear,0,2013-01-03 08:30:00
2:54 AM,19.9,19.0,96,30.38,6.0,Calm,Calm,-,N/A,,Clear,0,2013-01-03 08:54:00
3:54 AM,18.0,16.0,92,30.39,8.0,Calm,Calm,-,N/A,,Clear,0,2013-01-03 09:54:00
4:54 AM,19.0,16.0,88,30.40,8.0,Calm,Calm,-,N/A,,Clear,0,2013-01-03 10:54:00
5:54 AM,16.0,14.0,92,30.42,10.0,WNW,4.6,-,N/A,,Clear,290,2013-01-03 11:54:00
6:54 AM,15.1,12.0,88,30.45,10.0,WNW,5.8,-,N/A,,Clear,300,2013-01-03 12:54:00
7:54 AM,18.0,15.1,88,30.47,10.0,Calm,Calm,-,N/A,,Clear,0,2013-01-03 13:54:00
8:54 AM,21.9,19.9,92,30.49,10.0,Calm,Calm,-,N/A,,Scattered Clouds,0,2013-01-03 14:54:00
9:54 AM,27.0,21.9,81,30.50,10.0,NNW,5.8,-,N/A,,Partly Cloudy,340,2013-01-03 15:54:00
10:54 AM,30.9,24.1,76,30.51,10.0,NW,10.4,-,N/A,,Clear,320,2013-01-03 16:54:00
11:54 AM,34.0,25.0,70,30.49,10.0,NNW,8.1,-,N/A,,Clear,340,2013-01-03 17:54:00
12:54 PM,37.0,24.1,59,30.45,10.0,North,8.1,-,N/A,,Clear,350,2013-01-03 18:54:00
1:54 PM,39.0,24.1,55,30.44,10.0,North,12.7,-,N/A,,Clear,360,2013-01-03 19:54:00
2:54 PM,39.0,21.9,50,30.44,10.0,NNW,6.9,-,N/A,,Clear,330,2013-01-03 20:54:00
3:54 PM,37.9,21.0,51,30.45,10.0,North,3.5,-,N/A,,Scattered Clouds,360,2013-01-03 21:54:00
4:54 PM,33.1,21.0,61,30.47,10.0,Calm,Calm,-,N/A,,Scattered Clouds,0,2013-01-03 22:54:00
5:54 PM,28.9,21.0,72,30.48,10.0,NW,4.6,-,N/A,,Partly Cloudy,320,2013-01-03 23:54:00
6:54 PM,28.0,21.0,75,30.49,10.0,Calm,Calm,-,N/A,,Clear,0,2013-01-04 00:54:00
7:54 PM,24.1,19.0,81,30.49,10.0,Calm,Calm,-,N/A,,Clear,0,2013-01-04 01:54:00
8:54 PM,24.1,19.0,81,30.48,10.0,Calm,Calm,-,N/A,,Clear,0,2013-01-04 02:54:00
9:54 PM,21.9,17.1,82,30.47,10.0,Calm,Calm,-,N/A,,Clear,0,2013-01-04 03:54:00
10:54 PM,19.9,16.0,85,30.48,10.0,Calm,Calm,-,N/A,,Clear,0,2013-01-04 04:54:00
11:54 PM,19.9,16.0,85,30.49,10.0,Calm,Calm,-,N/A,,Clear,0,2013-01-04 05:54:00